Showing default

COSMOS 1275, 12504

Orbit data source: Space-Track

COSMOS 1275, 12504 is a payload satellite owned by VMF (CIS) in LEO that was launched on Thu, 04 Jun 1981 UTC via a KOSMOS 11K65M launch vehicle from the Plesetsk Missile And Space Complex (PKMTR). Payloads include a variety of satellites, spacecraft, and rockets equipped with specific instruments for various scientific and technological missions. These include communications satellites like Starlink; space stations such as the ISS; scientific satellites like the Hubble; Earth observation satellites from companies like Planet Labs, Umbra, and HawkEye 360; GPS; miniature CubeSats for education and research; and military/defense satellites.

Loading next visibility...
COSMOS 1275 details
Identifier
12504, 1981-053A
Orbit
LEO
Last TLE update15 hours ago
Origin
Flag of CISVMF (CIS)
ManufacturerOmsk Av. Zav.
MissionDefense Navigation
Bus & MotorKAUR-1 11F627, Unknown motor
Mass800 kg wet, 800 kg dry
Launch date (UTC)
1981-06-04 (44 years ago)
Launch vehicle
KOSMOS 11K65M
Launch site
Plesetsk Missile And Space Complex (PKMTR)
Object type
Payload
Rocket body
Debris
Shape & HBRCyl, 5 m
Radar Cross Section9.978 m², Large (>1 m²)

Expand to show TLE details & history

TLE from 15 hours ago
0 COSMOS 1275
1 12504U 81053A   25025.21718618  .00000088  00000-0  75721-4 0  9999
2 12504  82.9602 280.5087 0040183 153.6876 206.6332 13.74480949189686
Epoch: 2025-01-25T05:12Z
Definitive object data (Epoch: 2025-01-25T05:12:44.885Z)
Latitude-0.00014°
Longitude77.55249°
Altitude1,012.899 km
Speed7.332 km/s
True Right ascension18h 42m 02s
True Declination0° 00' 01"
Sunlit
Object was in daylight at TLE epoch
Visualization TLE readout
Latitude-82.36099°
Longitude10.73703°
Altitude1,027.142 km
Speed7.33 km/s
Apparent Right ascension10h 30m 18s
Apparent Declination-64° 42' 51"
Sunlit
Object is in daylight
Visualization observer readout
Local Sidereal Time21:51:46
Azimuth189.582° SSW
Elevation-64.578°
Doppler factor1
Orbital elements
Apogee altitude1,010.246 km
Perigee altitude951.106 km
Semi-major axis7,358.813 km
Eccentricity0.0040183
Inclination82.9602°
RAAN280.5087°
Arg. of periapsis153.6876°
True anomaly206.42771°
Mean anomaly206.6332°
Eccentric anomaly206.53036°
Mean motion3.4382 °/min
BSTAR0.000075721
Orbital period104.71 mins
Loading maneuver chart data...
Loading historical data...
Loading historical data...
Loading historical data...
Loading historical data...
Loading historical data...
Loading historical data...
Loading historical data...

COSMOS 1275 Visibility forecast

Observer location: undefined°, undefined

Span
Click to sort rows by Start time (UTC) header in descending order
Start Az.
Max El. time (UTC)
Max El. Az.
Max El.
End time (UTC)
End Az.
11 mins2025-01-26 04:30:39.821Z359.942° N2025-01-26 04:35:39.821Z62.607° ENE42.242°2025-01-26 04:41:39.821Z162.997° S
5 mins2025-01-26 06:18:39.821Z302.419° NW2025-01-26 06:20:39.821Z280.248° WNW15.994°2025-01-26 06:23:39.821Z247.827° W
7 mins2025-01-26 16:17:39.821Z122.486° SE2025-01-26 16:20:39.821Z88.799° E20.661°2025-01-26 16:24:39.821Z42.947° NE
10 mins2025-01-26 18:01:39.821Z210.053° SW2025-01-26 18:05:39.821Z265.947° W38.353°2025-01-26 18:11:39.821Z355.988° N
|